Погода в Лужках

Россия / Рязанская область     54°39′56″N   39°20′03″E
темп.,
°C
ветер,
м/с
пор.,
м/с
влажн.,
%
обл.,
%
осадки,
мм/ч
давл.,
гПа
погр.,
м
16 сентября, чт
чт1600:00+7зсз376499 0.0 1014159
03:00+7сз488286 0.8 1015620
06:00+7сз498236 0.0 1016488
09:00+7сз5883100 0.0 1017553
12:00+9ссз5576100 0.1 1018837
15:00+11ссз456796 0.2 10191143
18:00+9ссз4674100 0.3 1018274
21:00+8ссз2481100 0.4 1019136
17 сентября, пт
пт1700:00+7с2282100 0.0 101959
03:00+7ссв1179100 0.0 101930
06:00+6ссв2481100 0.0 1019143
09:00+7ссв2469100 0.0 1019368
12:00+9с2253100 0.0 10191067
15:00+9с4449100 0.0 10191296
18:00+8ссв4551100 0.0 1020523
21:00+4ссв34665 0.0 102152
18 сентября, сб
сб1800:00+3св346716 0.0 102251
03:00+2св337476 0.0 102343
06:00+1св3585100 0.0 102468
09:00+6всв3561100 0.0 1024415
12:00+11в454627 0.0 10241237
15:00+12в4439100 0.0 10231487
18:00+9всв3553100 0.0 102391
21:00+7всв51265100 0.0 1024402
19 сентября, вс
вс1900:00+5в41172100 0.0 1025324
03:00+3в41078100 0.0 1024247
06:00+3в41180100 0.0 1024297
09:00+6в61062100 0.0 1024515
12:00+9в7949100 0.0 1023969
15:00+10в71044100 0.0 10221286
18:00+9в71144100 0.0 10211116
21:00+7в71368100 1.3 1021910
20 сентября, пн
пн2000:00+6всв91781100 3.2 1019758
03:00+5всв91891100 8.1 1018680
06:00+5всв91792100 3.3 1018724
09:00+5всв91592100 6.9 1019810
12:00+5всв91693100 0.6 1019802
15:00+6всв91593100 1.5 1018820
18:00+6в91593100 2.8 1018863
21:00+6в91593100 6.7 1018831